Regional Weather Roundup
Issued by NWS Cleveland, OH

Home | Current Version | Previous Version | Graphics & Text | Print | Product List | Glossary On
Versions: 1 2 3 4 5 6 7 8 9 10 11 12 13 14 15 16 17 18 19 20 21 22 23 24 25 26 27 28 29 30 31 32 33 34 35 36 37 38 39 40 41 42 43 44 45 46 47 48 49 50
000
ASUS41 KCLE 091402
RWRCLE
OHIO REGIONAL WEATHER ROUNDUP
NATIONAL WEATHER SERVICE CLEVELAND, OH
900 AM EST FRI DEC 09 2016

NOTE: "FAIR" INDICATES FEW OR NO CLOUDS BELOW 12,000 FEET WITH NO
SIGNIFICANT WEATHER AND/OR OBSTRUCTIONS TO VISIBILITY.

OHZ001>008-015>018-024>027-034-035-043-044-091500-
   NORTHWEST OHIO

CITY           SKY/WX    TMP DP  RH WIND       PRES   REMARKS
DEFIANCE       LGT SNOW  25  19  78 W6        30.42R WCI  18
FINDLAY        FLURRIES  23  16  74 W20       30.41R WCI   8
TOLEDO EXPRESS CLOUDY    23  21  92 W12       30.39R WCI  12
TOLEDO EXEC    CLOUDY    24  21  88 SW10      30.40R WCI  14
LIMA           CLOUDY    21  17  84 W15       30.42R WCI   8
$$

OHZ009>014-019>023-028>033-038-089-091500-
   NORTHEAST OHIO

CITY           SKY/WX    TMP DP  RH WIND       PRES   REMARKS
CLE-HOPKINS    CLOUDY    26  18  71 SW16      30.38R WCI  14
CLE-LAKEFRONT  CLOUDY    26  21  81 SW20      30.35R WCI  12
CUY CO. ARPT   LGT SNOW  27  23  86 SW14G29   30.32R WCI  15
LORAIN-ELYRIA  CLOUDY    23  17  78 W15G22    30.37S WCI  10
ASHTABULA      LGT SNOW  24  22  91 W10       30.29R VSB 1   WCI  14
AKRON-CANTON   FLURRIES  23  16  74 W14       30.34R WCI  11
WOOSTER        LGT SNOW  22  17  81 W13       30.37R WCI  10
MANSFIELD      LGT SNOW  20  17  88 W12G18    30.36R FOG     WCI   8
YOUNGSTOWN     LGT SNOW  23  18  81 SW13      30.30R VSB 3/4 WCI  11
$$

OHZ042-051>053-060>062-070>072-077>081-091500-
  SOUTHWEST OHIO

CITY           SKY/WX    TMP DP  RH WIND       PRES   REMARKS
CINC-COVINGTON FLURRIES  21  13  71 W12       30.52R WCI   9
CINC-LUNKEN    LGT SNOW  23  15  71 W10       30.57R WCI  12
HAMILTON       CLOUDY    23  15  71 W12       30.55R WCI  12
DAYTON         MOSUNNY   18  14  84 SW9       30.48R WCI   7
WRIGHT-PAT AFB PTSUNNY   21  17  83 SW10      30.49R WCI  10
DAYTON GENERAL SUNNY     21  13  71 W9        30.49R WCI  11
WILMINGTON     SUNNY     20  14  77 W9        30.48R WCI   9
$$

OHZ036-037-039>041-045>050-054>059-063>069-073>076-082>088-091500-
  CENTRAL AND SOUTHEAST OHIO

CITY           SKY/WX    TMP DP  RH WIND       PRES   REMARKS
COLUMBUS       PTSUNNY   22  16  78 W14       30.46R WCI   9
OSU AIRPORT    CLOUDY    22  15  75 W14G21    30.44S WCI   9
BOLTON FIELD   CLOUDY    21  16  79 W10       30.46R WCI  10
RICKENBACK AFB   N/A     21  16  79 SW13      30.48R WCI   9
NEWARK         CLOUDY    23  15  71 W13       30.44R WCI  11
MARION         LGT SNOW  22  17  81 W14       30.41R WCI   9
LANCASTER      PTSUNNY   21  15  78 W12       30.47R WCI   9
ZANESVILLE     CLOUDY    22  15  75 W10       30.43R WCI  11
NEW PHILLY     LGT SNOW  22  18  85 W7        30.41R FOG     WCI  13
$$



USA.gov is the U.S. government's official web portal to all federal, state and local government web resources and services.